Location: Melbourne
(37.8666°S, 145.1333°E)
Time: 20:43:05
(UTC+11:00)

Hubble Space Telescope - Visible Passes

Search period start: 02 April 2015 00:00
Search period end: 11 April 2015 23:00
Orbit: 543 x 547 km, 28.5° (Epoch: 31 March)

Date Brightness Start Highest point End Pass type
(mag) Time Alt. Az. Time Alt. Az. Time Alt. Az.
08 Apr 3.3 19:58:50 10° NNW 19:59:20 11° N 19:59:20 11° N visible
09 Apr 3.0 19:49:52 10° NNW 19:51:31 15° N 19:51:31 15° N visible
10 Apr 2.7 19:41:02 10° NNW 19:43:37 18° N 19:43:37 18° N visible
11 Apr 2.5 19:32:17 10° NW 19:35:23 20° N 19:35:41 20° NNE visible
